Location: Newark
(23.1300°N, 73.6109°E)
Time: 17:16:38
(UTC+00:00)

AO-7 - Pass Details

Date: 10 July 2020
Orbit: 1440 x 1458 km, 101.8° (Epoch: 05 August)

Event Time Altitude Azimuth Distance (km) Brightness Sun altitude
Rises 23:54:11 0° 1° (N) 4,562 ? -7.6°
Reaches altitude 10° 23:57:19 10° 352° (N) 3,582 ? -6.9°
Maximum altitude 00:04:22 32° 294° (WNW) 2,305 ? -5.5°
Drops below altitude 10° 00:11:26 10° 235° (SW) 3,573 ? -4.0°
Enters shadow 00:13:56 - 227° (SW) 4,338 ? -3.5°
